Back to catalog

SL-19 DEB

AliveUNKNOWN
NORAD 23493·DEBRIS·🇷🇺 Russia

Launched Dec 26, 1994 from Baikonur Cosmodrome

Loading…

Next Passes (next 24 hours)

TLE

FreshSource: Space-Track

Epoch: Sep 14, 2026, 13:03 UTC

1 23493U 94085R   26257.54401206  .00000075  00000-0  31847-2 0  9998
2 23493  64.9382  90.7587 0145498 161.3704 229.0307 11.31975294310575

Track SL-19 DEB in real time with AllMySat

Download on the App Store